Location: Liberec
(50.7830°N, 15.0500°E)
Time: 04:46:59
(UTC+02:00)

ISS - Pass Details

Date: 23 May 2021
Orbit: 417 x 422 km, 51.6° (Epoch: 13 June)

Event Time Altitude Azimuth Distance (km) Brightness Sun altitude
Rises 23:46:47 0° 286° (WNW) 2,369 0.5 -16.8°
Reaches altitude 10° 23:48:56 10° 280° (W) 1,503 -0.6 -16.9°
Maximum altitude 23:52:11 46° 205° (SSW) 570 -3.5 -17.1°
Enters shadow 23:52:20 46° 196° (SSW) 574 -3.5 -17.1°
